[[{"header":{"parameterUnit":"m.s-1","parameterCategory":2,"la1":30.2991,"la2":30.254,"lo1":-89.0895,"lo2":-89.0444,"dy":0.0017,"dx":0.0017,"nx":28,"ny":28,"refTime":"2024-02-02T09:00:00:Z","depth":"0","parameterNumber":2,"parameterNumberName":"U-component_of_CURRENTS"},"data":[0,0,0,0,0,0,0,0,0,0,0,0,0,0,0,0,0,0,0,0,0,0,0,0,0,0,0,0,0,0,0,0,0,0,0,0,0,0,0,0,0,0,0,0,0,0,0,0,0,0,0,0,0,0,0,0,0,0,-0.2217,-0.2217,0,-0.2252,-0.2252,-0.2253,-0.2213,-0.2212,-0.2211,-0.2209,-0.2214,-0.2215,-0.2216,0,0,0,0,0,0,0,0,0,0,0,0,0,-0.2138,-0.214,-0.2217,-0.2217,-0.2218,-0.2252,-0.2252,-0.2253,-0.2213,-0.2212,-0.221,-0.2209,-0.2213,-0.2215,-0.2216,0,0,0,0,0,0,0,0,0,0,0,0,0,-0.2171,-0.214,-0.2217,-0.2203,-0.2203,-0.2252,-0.2252,-0.2253,-0.2214,-0.2212,-0.221,-0.2208,-0.2213,-0.2215,-0.2217,-0.227,0,0,-0.2223,-0.2224,0,0,0,0,0,0,0,0,-0.217,-0.2174,-0.2205,-0.2204,-0.2204,-0.2227,-0.2226,-0.2258,-0.2214,-0.2208,-0.2209,-0.2207,-0.2218,-0.2219,-0.2229,-0.2271,-0.2271,-0.2223,-0.2224,-0.2225,-0.2226,0,0,0,0,0,0,0,-0.2167,-0.2173,-0.2229,-0.2206,-0.2205,-0.2204,-0.2206,-0.2232,-0.2222,-0.2208,-0.2206,-0.2213,-0.2217,-0.2227,-0.2229,-0.2271,-0.2223,-0.2225,-0.2226,-0.2227,-0.2308,-0.2308,0,0,0,0,0,0,-0.2167,-0.2171,-0.2228,-0.223,-0.2183,-0.2207,-0.2209,-0.2221,-0.2223,-0.2222,-0.2215,-0.2211,-0.2224,-0.2226,-0.2229,-0.2232,-0.2225,-0.2227,-0.2228,-0.2307,-0.2308,-0.2309,0,0,0,0,0,0,-0.2166,-0.2172,-0.2227,-0.2202,-0.2209,-0.221,-0.2224,-0.2223,-0.2223,-0.2228,-0.2225,-0.2215,-0.2223,-0.2226,-0.2238,-0.2234,-0.2228,-0.223,-0.2306,-0.2307,-0.2308,-0.2278,0,0,0,0,0,0,-0.2163,-0.2172,-0.2176,-0.2202,-0.221,-0.2246,-0.2226,-0.2225,-0.2231,-0.2227,-0.2228,-0.2227,-0.2222,-0.2235,-0.224,-0.2237,-0.2232,-0.2305,-0.2306,-0.2308,-0.2278,-0.2279,-0.2279,0,0,0,0,0,-0.216,-0.2177,-0.2176,-0.2183,-0.2218,-0.2246,-0.225,-0.2243,-0.2233,-0.2235,-0.2233,-0.2226,-0.2249,-0.2237,-0.2243,-0.224,-0.2304,-0.2306,-0.2308,-0.2278,-0.2278,-0.2279,0,0,0,0,0,0,-0.215,-0.2175,-0.2175,-0.2199,-0.2216,-0.224,-0.2247,-0.2248,-0.2251,-0.2245,-0.2241,-0.2241,-0.2251,-0.2261,-0.2249,-0.2272,-0.2275,-0.2278,-0.2251,-0.2251,-0.2251,-0.2223,-0.2233,0,0,0,0,0,-0.2152,-0.2164,-0.2191,-0.2209,-0.2219,-0.2235,-0.2245,-0.2245,-0.2256,-0.2254,-0.2256,-0.2262,-0.227,-0.227,-0.2285,-0.2303,-0.2281,-0.2307,-0.2307,-0.2307,-0.229,-0.2241,-0.2233,-0.2315,-0.2315,-0.2315,0,0,-0.2154,-0.217,-0.2176,-0.2206,-0.222,-0.2238,-0.2235,-0.2255,-0.2258,-0.2258,-0.2262,-0.2269,-0.2278,-0.2287,-0.2293,-0.2289,-0.228,-0.231,-0.2309,-0.2292,-0.2242,-0.2233,-0.2225,-0.2317,-0.2316,-0.2316,0,0,-0.2166,-0.2179,-0.2192,-0.2208,-0.2232,-0.2242,-0.2248,-0.2272,-0.2266,-0.2285,-0.2276,-0.2269,-0.2306,-0.2285,-0.2285,-0.2302,-0.2287,-0.2326,-0.2295,-0.2247,-0.2239,-0.2231,-0.2212,-0.2203,-0.2319,-0.2319,-0.2319,0,-0.2164,-0.2184,-0.2201,-0.222,-0.2228,-0.2243,-0.2257,-0.2265,-0.2286,-0.2276,-0.2282,-0.2289,-0.2294,-0.2272,-0.2274,-0.2296,-0.2282,-0.2287,-0.2242,-0.2234,-0.2226,-0.2209,-0.2199,-0.2318,-0.2318,-0.2318,-0.2318,0,-0.2187,-0.2199,-0.2212,-0.2232,-0.2246,-0.2262,-0.2277,-0.2281,-0.2283,-0.2282,-0.227,-0.227,-0.2262,-0.2271,-0.2277,-0.2234,-0.2248,-0.2249,-0.2229,-0.2215,-0.22,-0.219,-0.2316,-0.2317,-0.2317,-0.2317,0,0,-0.2183,-0.2217,-0.2218,-0.2222,-0.225,-0.2263,-0.2268,-0.2267,-0.2259,-0.2263,-0.2239,-0.2236,-0.2226,-0.2225,-0.2225,-0.2181,-0.2123,-0.2193,-0.2191,-0.2154,-0.2039,-0.2079,-0.2072,-0.2114,-0.2112,-0.211,-0.2055,0,-0.2188,-0.2212,-0.2229,-0.2243,-0.2252,-0.2263,-0.2267,-0.2267,-0.2264,-0.225,-0.2219,-0.2212,-0.2213,-0.2208,-0.216,-0.2142,-0.2093,-0.2139,-0.2076,-0.2074,-0.2093,-0.206,-0.2152,-0.2113,-0.2045,-0.2044,-0.2043,0,-0.2192,-0.2206,-0.2219,-0.2234,-0.2239,-0.225,-0.2242,-0.225,-0.2231,-0.2229,-0.2196,-0.2189,-0.2135,-0.2139,-0.2054,-0.2088,-0.2055,-0.203,-0.2027,-0.2061,-0.2094,-0.2115,-0.2097,-0.2139,-0.2027,-0.2028,-0.2029,0,-0.2161,-0.2191,-0.2192,-0.2201,-0.2229,-0.2227,-0.2236,-0.2233,-0.2235,-0.2207,-0.2209,-0.2146,-0.2131,-0.2058,-0.2027,-0.2034,-0.1939,-0.1941,-0.1938,-0.1942,-0.2004,-0.2018,-0.1996,-0.1852,-0.1852,-0.1853,-0.1853,0,-0.2146,-0.2148,-0.2178,-0.2181,-0.2182,-0.2208,-0.2204,-0.2208,-0.2211,-0.2212,-0.2193,-0.2182,-0.2109,-0.2063,-0.201,-0.1955,-0.1921,-0.1917,-0.1917,-0.2003,-0.2016,-0.2043,-0.2047,-0.1851,-0.1851,-0.1851,-0.1852,0,-0.2105,-0.2128,-0.2132,-0.216,-0.2167,-0.2164,-0.2194,-0.2197,-0.2212,-0.2212,-0.2207,-0.2197,-0.2151,-0.2087,-0.1989,-0.1954,-0.1888,-0.1869,-0.1994,-0.2009,-0.2045,-0.2045,-0.1935,-0.1874,-0.1844,-0.1844,-0.1844,0,-0.2081,-0.2079,-0.2106,-0.2112,-0.2123,-0.2133,-0.2146,-0.2179,-0.2188,-0.2225,-0.2221,-0.2202,-0.2209,-0.2104,-0.2043,-0.1962,-0.1906,-0.1965,-0.1977,-0.2045,-0.2044,-0.1991,-0.1941,-0.2059,-0.2061,-0.2063,-0.2064,0,-0.2032,-0.2042,-0.2053,-0.2066,-0.208,-0.2096,-0.2118,-0.2139,-0.2186,-0.2226,-0.2277,-0.2299,-0.2259,-0.2262,-0.2165,-0.2085,-0.1987,-0.1997,-0.2023,-0.2165,-0.2147,-0.2092,-0.2117,-0.208,-0.2078,-0.2077,-0.2076,-0.2076,-0.1989,-0.1983,-0.2,-0.2006,-0.203,-0.2053,-0.2047,-0.2117,-0.2169,-0.2247,-0.2306,-0.2409,-0.2456,-0.2367,-0.2273,-0.222,-0.2093,-0.2192,-0.2173,-0.2102,-0.2076,-0.2144,-0.2136,-0.2135,-0.2134,-0.2133,-0.2132,0,-0.1924,-0.193,-0.1939,-0.1948,-0.1948,-0.1979,-0.2016,-0.2018,-0.2089,-0.2264,-0.2356,-0.2604,-0.2633,-0.26,-0.2572,-0.2471,-0.2332,-0.2371,-0.2338,-0.2262,-0.2314,-0.2362,-0.2457,-0.2457,-0.2457,-0.2457,-0.2457,-0.2457,-0.1891,-0.1874,-0.188,-0.1856,-0.1863,-0.1835,-0.1843,-0.1894,-0.1997,-0.2219,-0.2459,-0.2645,-0.2664,-0.2909,-0.2813,-0.2663,-0.2512,-0.2474,-0.2329,-0.2454,-0.2437,-0.242,-0.2468,-0.2583,-0.2583,-0.2287,-0.2286,-0.2284]},{"header":{"parameterUnit":"m.s-1","parameterCategory":2,"la1":30.2991,"la2":30.254,"lo1":-89.0895,"lo2":-89.0444,"dy":0.0017,"dx":0.0017,"nx":28,"ny":28,"refTime":"2024-02-02T09:00:00:Z","depth":"0","parameterNumber":3,"parameterNumberName":"V-component_of_CURRENTS"},"data":[0,0,0,0,0,0,0,0,0,0,0,0,0,0,0,0,0,0,0,0,0,0,0,0,0,0,0,0,0,0,0,0,0,0,0,0,0,0,0,0,0,0,0,0,0,0,0,0,0,0,0,0,0,0,0,0,0,0,-0.0334,-0.0334,0,-0.0281,-0.028,-0.0279,-0.0231,-0.0231,-0.023,-0.023,-0.0152,-0.0151,-0.0149,0,0,0,0,0,0,0,0,0,0,0,0,0,-0.0358,-0.0358,-0.0335,-0.0334,-0.0333,-0.0281,-0.028,-0.0279,-0.0231,-0.0231,-0.023,-0.0229,-0.0153,-0.0151,-0.0149,0,0,0,0,0,0,0,0,0,0,0,0,0,-0.033,-0.0358,-0.0335,-0.0304,-0.03,-0.0281,-0.028,-0.0279,-0.0231,-0.0231,-0.023,-0.0229,-0.0153,-0.0151,-0.0149,-0.0149,0,0,-0.0141,-0.014,0,0,0,0,0,0,0,0,-0.0331,-0.0329,-0.0309,-0.0306,-0.0302,-0.0263,-0.026,-0.0235,-0.0232,-0.0257,-0.023,-0.0229,-0.0188,-0.0183,-0.0173,-0.0145,-0.0142,-0.0141,-0.014,-0.0139,-0.0138,0,0,0,0,0,0,0,-0.0333,-0.033,-0.0312,-0.0308,-0.0304,-0.028,-0.0275,-0.0255,-0.0226,-0.0254,-0.0251,-0.0247,-0.0186,-0.0176,-0.0171,-0.0141,-0.0141,-0.0139,-0.0138,-0.0137,-0.0067,-0.0067,0,0,0,0,0,0,-0.0345,-0.0333,-0.0314,-0.0311,-0.0316,-0.028,-0.0275,-0.0275,-0.0227,-0.0219,-0.0247,-0.0245,-0.018,-0.0174,-0.0168,-0.0145,-0.0139,-0.0136,-0.0135,-0.0067,-0.0067,-0.0066,0,0,0,0,0,0,-0.0345,-0.0344,-0.0316,-0.0321,-0.0316,-0.0281,-0.0282,-0.0275,-0.0264,-0.0222,-0.0213,-0.0244,-0.018,-0.0172,-0.0152,-0.0142,-0.0135,-0.0133,-0.0068,-0.0067,-0.0067,-0.0111,0,0,0,0,0,0,-0.0346,-0.0344,-0.035,-0.0322,-0.0316,-0.0311,-0.0282,-0.0274,-0.0263,-0.0259,-0.0216,-0.0208,-0.0178,-0.0156,-0.015,-0.0139,-0.0131,-0.0068,-0.0068,-0.0067,-0.011,-0.0112,-0.0113,0,0,0,0,0,-0.0347,-0.0362,-0.0351,-0.0349,-0.0325,-0.0312,-0.0307,-0.0278,-0.0264,-0.0265,-0.0234,-0.021,-0.0146,-0.0155,-0.0147,-0.0135,-0.0069,-0.0068,-0.0067,-0.0109,-0.0111,-0.0113,0,0,0,0,0,0,-0.0376,-0.0357,-0.0345,-0.0353,-0.0336,-0.0304,-0.0304,-0.0285,-0.0262,-0.0257,-0.0215,-0.0205,-0.0182,-0.0155,-0.0165,-0.011,-0.0099,-0.0097,-0.0133,-0.0135,-0.0137,-0.0138,-0.0129,0,0,0,0,0,-0.0386,-0.039,-0.0366,-0.0373,-0.0367,-0.0337,-0.0329,-0.0311,-0.0286,-0.0275,-0.0244,-0.0206,-0.0172,-0.0153,-0.0125,-0.0103,-0.0069,-0.0086,-0.0088,-0.009,-0.0084,-0.0027,-0.0023,-0.0063,-0.0063,-0.0063,0,0,-0.0397,-0.0389,-0.039,-0.0379,-0.0363,-0.0359,-0.033,-0.0324,-0.0313,-0.0271,-0.0252,-0.0219,-0.017,-0.0142,-0.0127,-0.0118,-0.0062,-0.0088,-0.009,-0.0083,-0.0026,-0.0022,-0.0018,-0.0063,-0.0063,-0.0063,0,0,-0.0427,-0.0417,-0.0431,-0.0419,-0.0403,-0.0382,-0.0384,-0.0356,-0.0336,-0.0319,-0.0278,-0.0239,-0.02,-0.0152,-0.0124,-0.0118,-0.0079,-0.0109,-0.0113,-0.0059,-0.0055,-0.0051,-0.0016,-0.0009,-0.0104,-0.0104,-0.0104,0,-0.0441,-0.0452,-0.0432,-0.044,-0.043,-0.0396,-0.0401,-0.0379,-0.0347,-0.0322,-0.032,-0.0235,-0.0198,-0.014,-0.0134,-0.0121,-0.0093,-0.0113,-0.0062,-0.0057,-0.0053,-0.0017,-0.0008,-0.0106,-0.0106,-0.0106,-0.0105,0,-0.0479,-0.0482,-0.0489,-0.0483,-0.0471,-0.0471,-0.0438,-0.0421,-0.0394,-0.0359,-0.0308,-0.026,-0.0199,-0.0182,-0.0157,-0.01,-0.0093,-0.0078,-0.006,-0.0051,-0.0014,-0.0005,-0.0109,-0.0108,-0.0108,-0.0107,0,0,-0.0521,-0.0517,-0.0518,-0.0516,-0.0492,-0.0486,-0.0466,-0.0427,-0.0402,-0.0363,-0.0319,-0.0258,-0.0219,-0.0185,-0.0143,-0.0097,-0.0045,-0.0077,-0.0074,-0.005,0.0061,0.0103,0.0118,-0.0025,-0.0023,-0.0022,0.0068,0,-0.0552,-0.0578,-0.0559,-0.0565,-0.057,-0.0525,-0.0504,-0.0461,-0.0418,-0.0368,-0.0296,-0.0245,-0.0223,-0.0192,-0.0141,-0.0064,-0.0019,-0.0072,0.0056,0.006,0.0091,0.0131,0.0211,0.0301,0.0078,0.008,0.0081,0,-0.0592,-0.0601,-0.0623,-0.0596,-0.0592,-0.0587,-0.0536,-0.0512,-0.0427,-0.0387,-0.0318,-0.026,-0.0172,-0.0165,-0.0032,-0.0069,-0.0007,0.0043,0.0048,0.0113,0.0121,0.0261,0.0328,0.0494,0.0097,0.0095,0.0094,0,-0.0634,-0.0636,-0.0655,-0.0651,-0.0623,-0.0613,-0.0588,-0.0519,-0.0488,-0.0395,-0.0353,-0.025,-0.0187,-0.01,0.0011,-0.0007,0.015,0.0143,0.0235,0.0237,0.0346,0.0356,0.0588,0.0234,0.0234,0.0233,0.0233,0,-0.0673,-0.0682,-0.0679,-0.0691,-0.0698,-0.0655,-0.0638,-0.0593,-0.0517,-0.047,-0.0368,-0.0303,-0.0167,-0.0059,0.0021,0.017,0.0166,0.025,0.0276,0.0331,0.0338,0.0519,0.058,0.0237,0.0236,0.0235,0.0235,0,-0.0717,-0.0717,-0.0738,-0.0727,-0.0725,-0.0731,-0.0688,-0.0668,-0.0583,-0.0519,-0.0486,-0.0326,-0.0169,-0.0039,0.0124,0.0196,0.0428,0.0366,0.0413,0.0444,0.0673,0.0726,0.0974,0.1025,0.0485,0.0487,0.0489,0,-0.0741,-0.0762,-0.0782,-0.0804,-0.0806,-0.0802,-0.0797,-0.0719,-0.0686,-0.0532,-0.0499,-0.032,-0.0179,0.0087,0.0271,0.0447,0.0531,0.0589,0.0576,0.0722,0.0801,0.0834,0.0859,0.0695,0.0698,0.0701,0.0703,0,-0.0787,-0.08,-0.0826,-0.0877,-0.0895,-0.0898,-0.0875,-0.0855,-0.0747,-0.0668,-0.0521,-0.039,-0.0068,0.0223,0.0471,0.0557,0.0735,0.0644,0.0808,0.1004,0.1049,0.1097,0.0577,0.0725,0.0723,0.0721,0.072,0.0719,-0.0822,-0.0861,-0.0905,-0.0953,-0.0978,-0.0989,-0.0991,-0.0938,-0.088,-0.0737,-0.0565,-0.0331,0.0173,0.057,0.0678,0.1006,0.0931,0.1093,0.1148,0.1169,0.123,0.0745,0.0912,0.0911,0.091,0.0909,0.0908,0,-0.0865,-0.0915,-0.0971,-0.103,-0.1075,-0.1062,-0.1041,-0.1026,-0.097,-0.0768,-0.0594,-0.0007,0.0465,0.0865,0.1386,0.1532,0.1513,0.1589,0.1681,0.1677,0.1283,0.1305,0.1552,0.1552,0.1552,0.1551,0.1551,0.1551,-0.0892,-0.0968,-0.1006,-0.1108,-0.1146,-0.1188,-0.1182,-0.1132,-0.0998,-0.0685,-0.0346,-0.0055,0.066,0.1649,0.2088,0.2056,0.2157,0.2154,0.2167,0.1937,0.1895,0.1855,0.1893,0.226,0.226,0.2555,0.2559,0.2561]}],[{"header":{"parameterUnit":"m.s-1","parameterCategory":2,"la1":30.2991,"la2":30.254,"lo1":-89.0895,"lo2":-89.0444,"dy":0.0017,"dx":0.0017,"nx":28,"ny":28,"refTime":"2024-02-02T09:00:00:Z","depth":"2","parameterNumber":2,"parameterNumberName":"U-component_of_CURRENTS"},"data":[0,0,0,0,0,0,0,0,0,0,0,0,0,0,0,0,0,0,0,0,0,0,0,0,0,0,0,0,0,0,0,0,0,0,0,0,0,0,0,0,0,0,0,0,0,0,0,0,0,0,0,0,0,0,0,0,0,0,-0.2144,-0.2145,0,-0.2179,-0.2179,-0.2179,-0.2142,-0.2141,-0.2139,-0.2138,-0.2142,-0.2143,-0.2144,0,0,0,0,0,0,0,0,0,0,0,0,0,-0.2068,-0.2069,-0.2144,-0.2145,-0.2145,-0.2179,-0.2179,-0.2179,-0.2142,-0.2141,-0.2139,-0.2138,-0.2141,-0.2143,-0.2144,0,0,0,0,0,0,0,0,0,0,0,0,0,-0.21,-0.207,-0.2144,-0.2132,-0.2131,-0.2179,-0.2179,-0.218,-0.2143,-0.2141,-0.2139,-0.2137,-0.2141,-0.2143,-0.2145,-0.2196,0,0,-0.2151,-0.2151,0,0,0,0,0,0,0,0,-0.2098,-0.2103,-0.2133,-0.2133,-0.2132,-0.2155,-0.2154,-0.2184,-0.2143,-0.2137,-0.2138,-0.2136,-0.2146,-0.2147,-0.2156,-0.2196,-0.2196,-0.2151,-0.2152,-0.2153,-0.2153,0,0,0,0,0,0,0,-0.2096,-0.2101,-0.2156,-0.2134,-0.2133,-0.2132,-0.2134,-0.2159,-0.215,-0.2137,-0.2135,-0.2142,-0.2145,-0.2155,-0.2156,-0.2196,-0.2151,-0.2152,-0.2154,-0.2154,-0.2233,-0.2234,0,0,0,0,0,0,-0.2096,-0.21,-0.2155,-0.2158,-0.2112,-0.2135,-0.2138,-0.2149,-0.215,-0.2149,-0.2143,-0.214,-0.2152,-0.2154,-0.2156,-0.216,-0.2153,-0.2155,-0.2156,-0.2232,-0.2233,-0.2234,0,0,0,0,0,0,-0.2095,-0.2101,-0.2154,-0.213,-0.2137,-0.2139,-0.2151,-0.215,-0.2152,-0.2156,-0.2153,-0.2144,-0.2151,-0.2153,-0.2165,-0.2162,-0.2156,-0.2157,-0.2231,-0.2232,-0.2234,-0.2205,0,0,0,0,0,0,-0.2092,-0.2101,-0.2105,-0.213,-0.2138,-0.2173,-0.2154,-0.2153,-0.216,-0.2155,-0.2157,-0.2155,-0.2149,-0.2162,-0.2167,-0.2165,-0.2159,-0.223,-0.2232,-0.2233,-0.2205,-0.2206,-0.2206,0,0,0,0,0,-0.209,-0.2105,-0.2106,-0.2112,-0.2146,-0.2173,-0.2177,-0.2171,-0.2162,-0.2164,-0.2161,-0.2155,-0.2176,-0.2165,-0.217,-0.2168,-0.2229,-0.2231,-0.2233,-0.2205,-0.2205,-0.2206,0,0,0,0,0,0,-0.208,-0.2104,-0.2104,-0.2128,-0.2144,-0.2167,-0.2174,-0.2176,-0.2179,-0.2173,-0.2169,-0.2169,-0.2178,-0.2189,-0.2176,-0.2199,-0.2202,-0.2205,-0.2178,-0.2179,-0.218,-0.2152,-0.216,0,0,0,0,0,-0.2082,-0.2094,-0.212,-0.2137,-0.2148,-0.2163,-0.2173,-0.2174,-0.2184,-0.2183,-0.2185,-0.2191,-0.2198,-0.2197,-0.2212,-0.2229,-0.2208,-0.2234,-0.2234,-0.2234,-0.2217,-0.2169,-0.2161,-0.2241,-0.2241,-0.2241,0,0,-0.2084,-0.2099,-0.2106,-0.2135,-0.2149,-0.2166,-0.2163,-0.2183,-0.2186,-0.2186,-0.219,-0.2198,-0.2206,-0.2214,-0.222,-0.2216,-0.2207,-0.2237,-0.2236,-0.2219,-0.217,-0.2161,-0.2154,-0.2242,-0.2242,-0.2242,0,0,-0.2096,-0.2109,-0.2122,-0.2138,-0.2161,-0.2171,-0.2177,-0.2201,-0.2195,-0.2215,-0.2206,-0.2198,-0.2234,-0.2212,-0.2213,-0.223,-0.2215,-0.2254,-0.2224,-0.2177,-0.2169,-0.2161,-0.2143,-0.2134,-0.2248,-0.2248,-0.2248,0,-0.2095,-0.2114,-0.213,-0.2149,-0.2157,-0.2173,-0.2186,-0.2194,-0.2214,-0.2205,-0.2212,-0.2219,-0.2222,-0.2201,-0.2203,-0.2224,-0.2211,-0.2216,-0.2173,-0.2165,-0.2157,-0.214,-0.213,-0.2246,-0.2247,-0.2247,-0.2247,0,-0.2117,-0.2129,-0.2142,-0.2162,-0.2175,-0.2191,-0.2205,-0.221,-0.2213,-0.2212,-0.2201,-0.22,-0.2193,-0.22,-0.2206,-0.2164,-0.2178,-0.2179,-0.2159,-0.2146,-0.2131,-0.2121,-0.2245,-0.2245,-0.2246,-0.2246,0,0,-0.2115,-0.2147,-0.2148,-0.2152,-0.2179,-0.2191,-0.2197,-0.2196,-0.2189,-0.2193,-0.217,-0.2167,-0.2157,-0.2156,-0.2156,-0.2113,-0.2057,-0.2125,-0.2123,-0.2087,-0.1974,-0.2013,-0.2007,-0.2048,-0.2046,-0.2044,-0.1991,0,-0.2119,-0.2142,-0.2159,-0.2172,-0.2181,-0.2192,-0.2196,-0.2196,-0.2194,-0.218,-0.215,-0.2143,-0.2144,-0.2141,-0.2094,-0.2075,-0.2028,-0.2073,-0.201,-0.2008,-0.2026,-0.1995,-0.1851,-0.1793,-0.1981,-0.1979,-0.1978,0,-0.2123,-0.2137,-0.2149,-0.2163,-0.2169,-0.2179,-0.2172,-0.218,-0.2162,-0.216,-0.2129,-0.2122,-0.2069,-0.2073,-0.199,-0.2024,-0.199,-0.1966,-0.1963,-0.1996,-0.2028,-0.1835,-0.1768,-0.1961,-0.1963,-0.1964,-0.1965,0,-0.2094,-0.2122,-0.2123,-0.2132,-0.2159,-0.2157,-0.2166,-0.2164,-0.2166,-0.2139,-0.2142,-0.208,-0.2066,-0.1995,-0.1964,-0.1971,-0.1877,-0.1879,-0.1875,-0.1879,-0.1741,-0.1737,-0.1791,-0.1791,-0.1791,-0.1792,-0.1792,0,-0.2079,-0.208,-0.211,-0.2113,-0.2113,-0.214,-0.2136,-0.214,-0.2144,-0.2145,-0.2126,-0.2116,-0.2044,-0.2,-0.1948,-0.1893,-0.186,-0.1855,-0.1855,-0.1735,-0.1731,-0.1865,-0.1874,-0.179,-0.179,-0.179,-0.1791,0,-0.2039,-0.2062,-0.2066,-0.2092,-0.2099,-0.2098,-0.2127,-0.2129,-0.2145,-0.2145,-0.2141,-0.2131,-0.2086,-0.2024,-0.1927,-0.1893,-0.1823,-0.1809,-0.1697,-0.1686,-0.1859,-0.1868,-0.1782,-0.1783,-0.1783,-0.1784,-0.1784,0,-0.2016,-0.2014,-0.204,-0.2047,-0.2058,-0.2068,-0.2081,-0.2113,-0.2122,-0.2158,-0.2154,-0.2136,-0.213,-0.2028,-0.1904,-0.1806,-0.184,-0.1659,-0.1638,-0.1842,-0.1851,-0.1859,-0.1867,-0.1443,-0.144,-0.1438,-0.1437,0,-0.1968,-0.1979,-0.1988,-0.2001,-0.2016,-0.203,-0.2052,-0.2072,-0.2118,-0.2145,-0.2194,-0.2204,-0.2109,-0.1951,-0.183,-0.1742,-0.1664,-0.1622,-0.1807,-0.1502,-0.1527,-0.1536,-0.1552,-0.1419,-0.1421,-0.1422,-0.1423,-0.1423,-0.1926,-0.192,-0.1937,-0.1943,-0.1966,-0.1987,-0.1981,-0.1993,-0.2024,-0.1997,-0.2127,-0.2061,-0.1991,-0.1733,-0.1626,-0.1497,-0.1596,-0.1512,-0.1514,-0.152,-0.1524,-0.1552,-0.145,-0.1452,-0.1454,-0.1455,-0.1457,0,-0.1836,-0.1868,-0.1877,-0.1885,-0.1851,-0.1915,-0.195,-0.1857,-0.1835,-0.1853,-0.186,-0.1664,-0.1603,-0.1521,-0.1309,-0.1283,-0.121,-0.1232,-0.1137,-0.1156,-0.1173,-0.1156,-0.0986,-0.0985,-0.0983,-0.0982,0,0,-0.1796,-0.1766,-0.1771,-0.1728,-0.176,-0.166,-0.1665,-0.1552,-0.149,-0.1372,-0.1348,-0.1475,-0.1518,-0.1258,-0.1187,-0.107,-0.1093,-0.1009,-0.1386,-0.1294,-0.1309,-0.1335,-0.1333,0,0,0,0,0]},{"header":{"parameterUnit":"m.s-1","parameterCategory":2,"la1":30.2991,"la2":30.254,"lo1":-89.0895,"lo2":-89.0444,"dy":0.0017,"dx":0.0017,"nx":28,"ny":28,"refTime":"2024-02-02T09:00:00:Z","depth":"2","parameterNumber":3,"parameterNumberName":"V-component_of_CURRENTS"},"data":[0,0,0,0,0,0,0,0,0,0,0,0,0,0,0,0,0,0,0,0,0,0,0,0,0,0,0,0,0,0,0,0,0,0,0,0,0,0,0,0,0,0,0,0,0,0,0,0,0,0,0,0,0,0,0,0,0,0,-0.0348,-0.0348,0,-0.0296,-0.0295,-0.0294,-0.0246,-0.0245,-0.0245,-0.0245,-0.0168,-0.0167,-0.0165,0,0,0,0,0,0,0,0,0,0,0,0,0,-0.0371,-0.0371,-0.0349,-0.0348,-0.0347,-0.0296,-0.0295,-0.0294,-0.0246,-0.0245,-0.0245,-0.0244,-0.0169,-0.0167,-0.0165,0,0,0,0,0,0,0,0,0,0,0,0,0,-0.0343,-0.0371,-0.0349,-0.0318,-0.0315,-0.0296,-0.0295,-0.0294,-0.0246,-0.0245,-0.0245,-0.0244,-0.017,-0.0167,-0.0165,-0.0166,0,0,-0.0158,-0.0157,0,0,0,0,0,0,0,0,-0.0345,-0.0342,-0.0323,-0.032,-0.0316,-0.0277,-0.0275,-0.025,-0.0246,-0.0271,-0.0244,-0.0244,-0.0204,-0.0199,-0.0189,-0.0162,-0.0159,-0.0158,-0.0156,-0.0155,-0.0155,0,0,0,0,0,0,0,-0.0347,-0.0344,-0.0327,-0.0322,-0.0318,-0.0294,-0.0289,-0.027,-0.0241,-0.0269,-0.0266,-0.0261,-0.0202,-0.0192,-0.0187,-0.0158,-0.0158,-0.0156,-0.0154,-0.0153,-0.0086,-0.0085,0,0,0,0,0,0,-0.0358,-0.0346,-0.0328,-0.0325,-0.033,-0.0294,-0.0289,-0.029,-0.0242,-0.0234,-0.0262,-0.0259,-0.0196,-0.019,-0.0184,-0.0161,-0.0155,-0.0153,-0.0152,-0.0086,-0.0086,-0.0085,0,0,0,0,0,0,-0.0359,-0.0357,-0.0331,-0.0335,-0.033,-0.0295,-0.0296,-0.0289,-0.0279,-0.0237,-0.0229,-0.0259,-0.0195,-0.0188,-0.0169,-0.0159,-0.0152,-0.015,-0.0086,-0.0086,-0.0085,-0.0129,0,0,0,0,0,0,-0.036,-0.0358,-0.0364,-0.0336,-0.033,-0.0326,-0.0297,-0.0289,-0.0278,-0.0274,-0.0232,-0.0224,-0.0194,-0.0172,-0.0166,-0.0155,-0.0148,-0.0087,-0.0086,-0.0086,-0.0128,-0.013,-0.0131,0,0,0,0,0,-0.0361,-0.0375,-0.0365,-0.0362,-0.0339,-0.0326,-0.0321,-0.0293,-0.0279,-0.028,-0.0249,-0.0225,-0.0162,-0.0171,-0.0164,-0.0152,-0.0087,-0.0086,-0.0086,-0.0127,-0.0129,-0.0131,0,0,0,0,0,0,-0.0389,-0.0371,-0.0359,-0.0367,-0.035,-0.0318,-0.0318,-0.0299,-0.0277,-0.0272,-0.023,-0.0221,-0.0198,-0.0171,-0.0182,-0.0128,-0.0117,-0.0114,-0.015,-0.0152,-0.0154,-0.0154,-0.0146,0,0,0,0,0,-0.0399,-0.0403,-0.038,-0.0386,-0.0381,-0.0351,-0.0343,-0.0325,-0.0301,-0.0289,-0.0259,-0.0222,-0.0189,-0.017,-0.0142,-0.0122,-0.0087,-0.0104,-0.0106,-0.0108,-0.0102,-0.0046,-0.0042,-0.0082,-0.0082,-0.0082,0,0,-0.041,-0.0402,-0.0403,-0.0392,-0.0377,-0.0373,-0.0344,-0.0338,-0.0328,-0.0286,-0.0267,-0.0235,-0.0187,-0.0159,-0.0145,-0.0136,-0.0081,-0.0107,-0.0109,-0.0102,-0.0045,-0.0041,-0.0037,-0.0082,-0.0082,-0.0082,0,0,-0.044,-0.043,-0.0444,-0.0432,-0.0417,-0.0396,-0.0397,-0.037,-0.0351,-0.0334,-0.0293,-0.0255,-0.0217,-0.0169,-0.0142,-0.0137,-0.0097,-0.0128,-0.0132,-0.0078,-0.0074,-0.007,-0.0035,-0.0027,-0.0123,-0.0123,-0.0123,0,-0.0454,-0.0465,-0.0446,-0.0453,-0.0443,-0.041,-0.0415,-0.0394,-0.0361,-0.0337,-0.0335,-0.0251,-0.0215,-0.0158,-0.0152,-0.014,-0.0112,-0.0131,-0.0081,-0.0076,-0.0071,-0.0035,-0.0027,-0.0125,-0.0124,-0.0124,-0.0124,0,-0.0492,-0.0495,-0.0502,-0.0496,-0.0485,-0.0485,-0.0452,-0.0435,-0.0409,-0.0374,-0.0324,-0.0276,-0.0216,-0.02,-0.0175,-0.0118,-0.0111,-0.0097,-0.0079,-0.007,-0.0033,-0.0023,-0.0128,-0.0127,-0.0126,-0.0126,0,0,-0.0533,-0.053,-0.053,-0.0529,-0.0505,-0.0499,-0.048,-0.0442,-0.0417,-0.0379,-0.0335,-0.0275,-0.0237,-0.0202,-0.0161,-0.0115,-0.0064,-0.0096,-0.0092,-0.0067,0.0042,0.0083,0.0098,-0.0044,-0.0042,-0.004,0.005,0,-0.0564,-0.059,-0.0572,-0.0578,-0.0584,-0.0539,-0.0518,-0.0476,-0.0434,-0.0384,-0.0313,-0.0263,-0.024,-0.021,-0.0159,-0.0082,-0.0038,-0.009,0.0037,0.0041,0.0071,0.0111,0.0027,0.0105,0.006,0.0062,0.0063,0,-0.0603,-0.0613,-0.0636,-0.0609,-0.0605,-0.0601,-0.055,-0.0528,-0.0443,-0.0403,-0.0335,-0.0278,-0.0191,-0.0183,-0.005,-0.0087,-0.0025,0.0025,0.003,0.0093,0.0101,0.0094,0.0125,0.008,0.0078,0.0077,0.0076,0,-0.0645,-0.0647,-0.0667,-0.0663,-0.0636,-0.0626,-0.0602,-0.0534,-0.0504,-0.0412,-0.037,-0.0268,-0.0205,-0.0118,-0.0007,-0.0025,0.0132,0.0124,0.0215,0.0218,0.0187,0.0185,0.0215,0.0215,0.0214,0.0214,0.0214,0,-0.0684,-0.0693,-0.0691,-0.0702,-0.071,-0.0668,-0.0651,-0.0607,-0.0532,-0.0487,-0.0385,-0.032,-0.0185,-0.0078,0.0003,0.015,0.0147,0.023,0.0256,0.0169,0.0164,0.0175,0.0169,0.0218,0.0217,0.0216,0.0216,0,-0.0727,-0.0728,-0.0749,-0.0738,-0.0737,-0.0743,-0.0701,-0.0681,-0.0597,-0.0534,-0.0502,-0.0343,-0.0187,-0.0057,0.0105,0.0177,0.0299,0.0346,0.023,0.0242,0.034,0.033,0.0459,0.0462,0.0464,0.0466,0.0467,0,-0.0751,-0.0772,-0.0792,-0.0815,-0.0816,-0.0813,-0.0808,-0.0732,-0.07,-0.0547,-0.0515,-0.0337,-0.0202,0.0061,0.0199,0.0362,0.0372,0.0397,0.0362,0.0359,0.0371,0.0358,0.0346,0.029,0.029,0.029,0.029,0,-0.0797,-0.0809,-0.0835,-0.0887,-0.0905,-0.0908,-0.0886,-0.0866,-0.076,-0.0685,-0.054,-0.0415,-0.014,0.0043,0.0272,0.0346,0.0366,0.0404,0.0447,0.025,0.0209,0.0217,0.0209,0.0289,0.0289,0.0289,0.0289,0.0289,-0.0831,-0.087,-0.0914,-0.0961,-0.0986,-0.0998,-0.1001,-0.0955,-0.0902,-0.0789,-0.0622,-0.0451,-0.02,0.0087,0.0273,0.0411,0.0409,0.0424,0.0419,0.0416,0.0389,0.0356,0.0456,0.0457,0.0458,0.0459,0.046,0,-0.0872,-0.0924,-0.0979,-0.1038,-0.1079,-0.107,-0.105,-0.1037,-0.0993,-0.0884,-0.075,-0.0496,-0.024,0.0018,0.0228,0.0404,0.0357,0.0437,0.0334,0.0333,0.0332,0.0298,0.0343,0.0344,0.0345,0.0345,0,0,-0.0899,-0.0973,-0.101,-0.1109,-0.1149,-0.1188,-0.1183,-0.1149,-0.1081,-0.0989,-0.0879,-0.0667,-0.0304,-0.0157,0.0074,0.0203,0.0209,0.0202,0.0264,0.0108,0.0105,0.0285,0.0227,0,0,0,0,0]}],[{"header":{"parameterUnit":"m.s-1","parameterCategory":2,"la1":30.2991,"la2":30.254,"lo1":-89.0895,"lo2":-89.0444,"dy":0.0017,"dx":0.0017,"nx":28,"ny":28,"refTime":"2024-02-02T09:00:00:Z","depth":"4","parameterNumber":2,"parameterNumberName":"U-component_of_CURRENTS"},"data":[0,0,0,0,0,0,0,0,0,0,0,0,0,0,0,0,0,0,0,0,0,0,0,0,0,0,0,0,0,0,0,0,0,0,0,0,0,0,0,0,0,0,0,0,0,0,0,0,0,0,0,0,0,0,0,0,0,0,-0.1143,-0.1143,0,-0.121,-0.1211,-0.1212,-0.1234,-0.1233,-0.1233,-0.1233,-0.1286,-0.1288,-0.129,0,0,0,0,0,0,0,0,0,0,0,0,0,-0.1052,-0.1053,-0.1143,-0.1143,-0.1144,-0.121,-0.1211,-0.1212,-0.1234,-0.1233,-0.1233,-0.1233,-0.1286,-0.1288,-0.129,0,0,0,0,0,0,0,0,0,0,0,0,0,-0.1102,-0.1054,-0.1142,-0.1163,-0.1166,-0.121,-0.1211,-0.1212,-0.1234,-0.1233,-0.1233,-0.1232,-0.1285,-0.1288,-0.129,-0.1313,0,0,-0.1298,-0.1299,0,0,0,0,0,0,0,0,-0.1099,-0.1105,-0.1159,-0.1162,-0.1165,-0.1214,-0.1199,-0.1246,-0.1234,-0.1207,-0.1233,-0.1232,-0.1261,-0.1266,-0.1279,-0.1316,-0.1318,-0.1298,-0.1299,-0.13,-0.1301,0,0,0,0,0,0,0,-0.1096,-0.1103,-0.1169,-0.116,-0.1164,-0.1176,-0.1183,-0.1208,-0.1235,-0.121,-0.1212,-0.122,-0.1263,-0.1276,-0.128,-0.1319,-0.1298,-0.13,-0.1302,-0.1303,-0.1353,-0.1353,0,0,0,0,0,0,-0.1088,-0.1099,-0.1167,-0.1171,-0.1131,-0.1178,-0.1186,-0.1198,-0.1235,-0.1241,-0.122,-0.1221,-0.1272,-0.1277,-0.1282,-0.1329,-0.13,-0.1303,-0.1304,-0.1353,-0.1353,-0.1353,0,0,0,0,0,0,-0.1086,-0.1094,-0.1164,-0.1137,-0.1147,-0.118,-0.1194,-0.12,-0.1231,-0.1244,-0.1249,-0.1248,-0.1272,-0.1279,-0.1323,-0.133,-0.1304,-0.1306,-0.1353,-0.1353,-0.1353,-0.1411,0,0,0,0,0,0,-0.1083,-0.1093,-0.1109,-0.1136,-0.1148,-0.1197,-0.1195,-0.1201,-0.1236,-0.1238,-0.1269,-0.1272,-0.1272,-0.1319,-0.1325,-0.1333,-0.1308,-0.1353,-0.1353,-0.1353,-0.1409,-0.1413,-0.1416,0,0,0,0,0,-0.108,-0.11,-0.1109,-0.1118,-0.1166,-0.1198,-0.1206,-0.1227,-0.1238,-0.1254,-0.128,-0.1272,-0.1319,-0.1323,-0.133,-0.1338,-0.1354,-0.1353,-0.1353,-0.1408,-0.1412,-0.1415,0,0,0,0,0,0,-0.1072,-0.1105,-0.1116,-0.1146,-0.1174,-0.1202,-0.1225,-0.1241,-0.1277,-0.1286,-0.1295,-0.1301,-0.1335,-0.1328,-0.1331,-0.1345,-0.1325,-0.1326,-0.1364,-0.1368,-0.1371,-0.1349,-0.131,0,0,0,0,0,-0.1078,-0.1101,-0.1131,-0.1158,-0.1174,-0.1205,-0.1226,-0.1243,-0.1273,-0.1289,-0.1313,-0.1326,-0.1336,-0.1349,-0.1359,-0.1387,-0.1358,-0.1385,-0.1388,-0.1391,-0.1374,-0.134,-0.1339,-0.1351,-0.1351,-0.1351,0,0,-0.1084,-0.1105,-0.112,-0.1159,-0.1184,-0.121,-0.1217,-0.1256,-0.1278,-0.129,-0.1338,-0.1351,-0.1347,-0.1371,-0.1382,-0.1371,-0.1377,-0.1391,-0.1394,-0.1374,-0.1339,-0.1338,-0.1337,-0.1351,-0.1351,-0.1351,0,0,-0.1099,-0.1128,-0.1148,-0.1173,-0.1214,-0.1231,-0.1246,-0.1289,-0.1309,-0.1359,-0.1359,-0.1374,-0.1414,-0.1398,-0.1396,-0.142,-0.1399,-0.1425,-0.1428,-0.1396,-0.1395,-0.1393,-0.1379,-0.1375,-0.1424,-0.1424,-0.1424,0,-0.1105,-0.1133,-0.1161,-0.1186,-0.1206,-0.1241,-0.1264,-0.1292,-0.1345,-0.1356,-0.1378,-0.1406,-0.1414,-0.1408,-0.1418,-0.1427,-0.1415,-0.1423,-0.1402,-0.1399,-0.1396,-0.1381,-0.1377,-0.1426,-0.1426,-0.1426,-0.1426,0,-0.1127,-0.1157,-0.1174,-0.1211,-0.1238,-0.1267,-0.1302,-0.1334,-0.1369,-0.1387,-0.1413,-0.1429,-0.1432,-0.1439,-0.1446,-0.1426,-0.1428,-0.1416,-0.1396,-0.1399,-0.1383,-0.1377,-0.143,-0.1429,-0.1429,-0.1428,0,0,-0.1112,-0.1175,-0.1181,-0.12,-0.1253,-0.1273,-0.1311,-0.1339,-0.1355,-0.1403,-0.1413,-0.1434,-0.144,-0.1434,-0.1437,-0.1415,-0.1407,-0.1418,-0.1415,-0.141,-0.1356,-0.1315,-0.1304,-0.1403,-0.1402,-0.1401,-0.1361,0,-0.1117,-0.1158,-0.1191,-0.123,-0.125,-0.129,-0.132,-0.1352,-0.1382,-0.1406,-0.1408,-0.1428,-0.1438,-0.145,-0.143,-0.1414,-0.139,-0.1419,-0.1345,-0.1342,-0.1311,-0.1295,-0.1397,-0.1357,-0.1355,-0.1354,-0.1354,0,-0.1113,-0.1143,-0.1179,-0.123,-0.1244,-0.1277,-0.1313,-0.1346,-0.1376,-0.1401,-0.1409,-0.1422,-0.141,-0.1418,-0.1373,-0.1399,-0.1376,-0.1358,-0.1356,-0.1284,-0.1289,-0.1344,-0.1342,-0.1343,-0.1344,-0.1345,-0.1346,0,-0.1063,-0.1127,-0.1152,-0.1172,-0.1239,-0.1264,-0.1302,-0.1342,-0.1367,-0.1394,-0.1416,-0.1402,-0.1411,-0.1371,-0.1357,-0.1366,-0.1304,-0.1304,-0.1238,-0.1236,-0.1262,-0.1263,-0.1246,-0.1246,-0.1246,-0.1246,-0.1246,0,-0.1031,-0.1055,-0.1137,-0.1151,-0.1186,-0.1245,-0.128,-0.1314,-0.1361,-0.138,-0.1411,-0.1415,-0.1402,-0.1378,-0.1346,-0.1278,-0.1291,-0.1222,-0.1211,-0.1291,-0.1296,-0.1259,-0.1261,-0.1245,-0.1245,-0.1245,-0.1245,0,-0.0962,-0.1018,-0.1053,-0.1135,-0.1162,-0.1188,-0.1276,-0.1297,-0.1356,-0.1381,-0.1394,-0.1423,-0.1395,-0.1373,-0.1311,-0.1265,-0.1201,-0.1171,-0.1271,-0.1269,-0.1158,-0.1164,-0.1078,-0.1076,-0.1074,-0.1073,-0.1072,0,-0.0924,-0.0937,-0.1028,-0.1056,-0.1098,-0.1156,-0.1194,-0.1276,-0.1298,-0.1374,-0.1371,-0.1384,-0.1389,-0.1269,-0.1252,-0.1172,-0.1158,-0.1122,-0.1119,-0.1137,-0.1135,-0.1144,-0.1151,-0.1069,-0.1068,-0.1068,-0.1068,0,-0.0852,-0.0895,-0.0928,-0.0986,-0.1038,-0.1084,-0.1147,-0.1162,-0.1251,-0.1319,-0.1321,-0.1305,-0.1276,-0.1224,-0.1178,-0.112,-0.1141,-0.1104,-0.1107,-0.1104,-0.1125,-0.1127,-0.1137,-0.1062,-0.1062,-0.1063,-0.1063,0,-0.0797,-0.0805,-0.0859,-0.0896,-0.0963,-0.0994,-0.1043,-0.1086,-0.1125,-0.1226,-0.122,-0.124,-0.1273,-0.1196,-0.1148,-0.1095,-0.1071,-0.103,-0.1036,-0.1043,-0.1046,-0.107,-0.0962,0,0,0,0,0,-0.0735,-0.0733,-0.0766,-0.0806,-0.0872,-0.0902,-0.0999,-0.1053,-0.1149,-0.1129,-0.1178,-0.1153,-0.1113,-0.1113,-0.1043,-0.11,-0.1055,-0.1014,-0.1008,-0.1028,-0.1035,-0.1041,0,0,0,0,0,0,-0.0694,-0.0717,-0.0728,-0.0722,-0.0729,-0.0785,-0.0845,-0.0917,-0.0916,-0.102,-0.0997,-0.1074,-0.1032,-0.1116,-0.1008,-0.1007,-0.0981,-0.103,-0.1027,-0.1024,-0.1031,-0.1036,-0.1045,0,0,0,0,0]},{"header":{"parameterUnit":"m.s-1","parameterCategory":2,"la1":30.2991,"la2":30.254,"lo1":-89.0895,"lo2":-89.0444,"dy":0.0017,"dx":0.0017,"nx":28,"ny":28,"refTime":"2024-02-02T09:00:00:Z","depth":"4","parameterNumber":3,"parameterNumberName":"V-component_of_CURRENTS"},"data":[0,0,0,0,0,0,0,0,0,0,0,0,0,0,0,0,0,0,0,0,0,0,0,0,0,0,0,0,0,0,0,0,0,0,0,0,0,0,0,0,0,0,0,0,0,0,0,0,0,0,0,0,0,0,0,0,0,0,-0.0361,-0.0361,0,-0.0334,-0.0333,-0.0333,-0.0304,-0.0303,-0.0303,-0.0303,-0.0263,-0.0262,-0.0261,0,0,0,0,0,0,0,0,0,0,0,0,0,-0.0364,-0.0364,-0.0361,-0.0361,-0.0361,-0.0334,-0.0333,-0.0333,-0.0304,-0.0303,-0.0303,-0.0302,-0.0263,-0.0262,-0.0261,0,0,0,0,0,0,0,0,0,0,0,0,0,-0.0352,-0.0364,-0.0361,-0.0343,-0.0341,-0.0334,-0.0333,-0.0333,-0.0304,-0.0303,-0.0303,-0.0302,-0.0263,-0.0262,-0.0261,-0.0266,0,0,-0.0258,-0.0258,0,0,0,0,0,0,0,0,-0.0353,-0.0352,-0.0346,-0.0344,-0.0342,-0.0322,-0.032,-0.031,-0.0304,-0.0318,-0.0303,-0.0302,-0.0282,-0.0279,-0.0275,-0.0264,-0.0263,-0.0258,-0.0257,-0.0257,-0.0256,0,0,0,0,0,0,0,-0.0354,-0.0353,-0.035,-0.0346,-0.0343,-0.0328,-0.0326,-0.0318,-0.0303,-0.0316,-0.0314,-0.0312,-0.0281,-0.0276,-0.0274,-0.0262,-0.0258,-0.0257,-0.0256,-0.0256,-0.0245,-0.0245,0,0,0,0,0,0,-0.036,-0.0354,-0.0351,-0.0349,-0.0347,-0.0329,-0.0326,-0.0329,-0.0303,-0.0299,-0.0313,-0.0311,-0.0278,-0.0275,-0.0272,-0.0268,-0.0257,-0.0256,-0.0255,-0.0245,-0.0245,-0.0245,0,0,0,0,0,0,-0.036,-0.036,-0.0352,-0.0351,-0.0349,-0.0329,-0.0332,-0.0328,-0.0326,-0.03,-0.0296,-0.0314,-0.0278,-0.0274,-0.0267,-0.0266,-0.0255,-0.0254,-0.0244,-0.0245,-0.0245,-0.0264,0,0,0,0,0,0,-0.0361,-0.0361,-0.0368,-0.0352,-0.0349,-0.0353,-0.0333,-0.0328,-0.0325,-0.0323,-0.03,-0.0296,-0.0277,-0.0269,-0.0266,-0.0265,-0.0254,-0.0244,-0.0245,-0.0245,-0.0263,-0.0266,-0.0267,0,0,0,0,0,-0.0361,-0.0374,-0.0369,-0.0368,-0.0359,-0.0354,-0.0351,-0.0335,-0.0326,-0.0329,-0.0312,-0.0297,-0.027,-0.0268,-0.0265,-0.0263,-0.0244,-0.0244,-0.0245,-0.0263,-0.0265,-0.0267,0,0,0,0,0,0,-0.038,-0.0372,-0.0366,-0.0376,-0.0368,-0.0349,-0.0352,-0.0341,-0.033,-0.0329,-0.0302,-0.0297,-0.029,-0.0279,-0.0277,-0.0263,-0.0254,-0.0254,-0.0269,-0.0271,-0.0273,-0.0267,-0.0253,0,0,0,0,0,-0.0388,-0.0396,-0.0383,-0.0392,-0.039,-0.0373,-0.037,-0.036,-0.0346,-0.0341,-0.0324,-0.0307,-0.0291,-0.0283,-0.0271,-0.0266,-0.024,-0.0263,-0.0265,-0.0267,-0.0261,-0.0223,-0.022,-0.0248,-0.0248,-0.0248,0,0,-0.0398,-0.0395,-0.0399,-0.0396,-0.0389,-0.0391,-0.037,-0.037,-0.0369,-0.0339,-0.0336,-0.0316,-0.0293,-0.0283,-0.0279,-0.0273,-0.0246,-0.0268,-0.027,-0.0262,-0.0223,-0.022,-0.0218,-0.0249,-0.0248,-0.0248,0,0,-0.0421,-0.042,-0.0432,-0.0428,-0.0422,-0.0411,-0.0414,-0.0399,-0.039,-0.0385,-0.0359,-0.0337,-0.0324,-0.0297,-0.0283,-0.0291,-0.0261,-0.0294,-0.0295,-0.0259,-0.0255,-0.0252,-0.0217,-0.0211,-0.0292,-0.0292,-0.0292,0,-0.0434,-0.0447,-0.0435,-0.0445,-0.0443,-0.0422,-0.0432,-0.0422,-0.0405,-0.0394,-0.0389,-0.0346,-0.0326,-0.0297,-0.0296,-0.0294,-0.027,-0.0287,-0.026,-0.0256,-0.0253,-0.0217,-0.021,-0.0293,-0.0293,-0.0293,-0.0293,0,-0.0462,-0.0472,-0.048,-0.0483,-0.048,-0.0487,-0.0469,-0.0464,-0.045,-0.043,-0.0404,-0.037,-0.0339,-0.0331,-0.0314,-0.0281,-0.0271,-0.0268,-0.0251,-0.0251,-0.0214,-0.0206,-0.0294,-0.0294,-0.0294,-0.0294,0,0,-0.0488,-0.0499,-0.0502,-0.0508,-0.0501,-0.0502,-0.0499,-0.0484,-0.0474,-0.0449,-0.0427,-0.0389,-0.036,-0.0342,-0.0314,-0.0278,-0.0233,-0.0264,-0.0261,-0.0224,-0.015,-0.0159,-0.0151,-0.0225,-0.0223,-0.0222,-0.0135,0,-0.0513,-0.0543,-0.0536,-0.0555,-0.0565,-0.0543,-0.054,-0.052,-0.0496,-0.0469,-0.042,-0.039,-0.0368,-0.0346,-0.0308,-0.025,-0.0212,-0.0256,-0.016,-0.0157,-0.0161,-0.0143,-0.0219,-0.0128,-0.0127,-0.0125,-0.0124,0,-0.0539,-0.0556,-0.0586,-0.0587,-0.0589,-0.0596,-0.0578,-0.057,-0.0524,-0.0499,-0.0453,-0.0411,-0.0347,-0.0334,-0.0229,-0.0259,-0.0205,-0.0162,-0.0158,-0.0151,-0.0151,-0.0128,-0.0109,-0.0111,-0.0112,-0.0113,-0.0114,0,-0.0563,-0.0584,-0.0611,-0.0614,-0.0616,-0.0621,-0.0616,-0.0583,-0.057,-0.0513,-0.0485,-0.0412,-0.0363,-0.0291,-0.0199,-0.021,-0.0085,-0.0089,-0.0046,-0.0046,-0.0055,-0.0059,-0.0015,-0.0015,-0.0015,-0.0015,-0.0016,0,-0.0585,-0.0605,-0.0629,-0.0643,-0.0668,-0.0652,-0.0657,-0.0637,-0.0598,-0.0573,-0.0502,-0.0457,-0.0349,-0.0266,-0.0195,-0.0092,-0.0079,-0.0036,-0.002,-0.0067,-0.0073,-0.0049,-0.0055,-0.0012,-0.0013,-0.0013,-0.0014,0,-0.0602,-0.0619,-0.0652,-0.0673,-0.0683,-0.07,-0.0697,-0.0692,-0.0645,-0.0608,-0.0586,-0.0477,-0.0363,-0.026,-0.0129,-0.0082,0.0011,0.0041,-0.001,-0.0001,0.0025,0.0018,0.0102,0.0103,0.0103,0.0103,0.0104,0,-0.0611,-0.0634,-0.0683,-0.071,-0.0725,-0.0745,-0.0758,-0.0727,-0.0712,-0.0618,-0.0598,-0.0476,-0.0397,-0.0213,-0.0111,0.0029,0.004,0.0086,0.0053,0.0032,0.0039,0.0031,0.0023,0.0104,0.0104,0.0105,0.0105,0,-0.0626,-0.0652,-0.0682,-0.0745,-0.0778,-0.0801,-0.081,-0.0799,-0.0744,-0.0702,-0.0592,-0.048,-0.0347,-0.021,-0.0098,-0.0004,0.0055,0.0091,0.009,0.0059,0.0036,0.004,0.0032,0.0106,0.0106,0.0106,0.0106,0,-0.0638,-0.0669,-0.072,-0.0768,-0.0818,-0.0843,-0.0841,-0.0807,-0.078,-0.0671,-0.0636,-0.048,-0.0384,-0.0226,-0.0125,-0.0029,-0.0011,0.0005,0.0009,0.0009,-0.0052,-0.0098,-0.0046,0,0,0,0,0,-0.0642,-0.0682,-0.0735,-0.0792,-0.0841,-0.0868,-0.0869,-0.0851,-0.0796,-0.0728,-0.0677,-0.0552,-0.0365,-0.0275,-0.018,-0.0134,-0.001,-0.0023,0.0006,0.0114,0.0112,0.0055,0,0,0,0,0,0,-0.0649,-0.0705,-0.0736,-0.0801,-0.0842,-0.0889,-0.0892,-0.0856,-0.0805,-0.0732,-0.0631,-0.0548,-0.0371,-0.0425,-0.0185,-0.0152,-0.0125,0.0074,0.0075,0.0115,0.0114,0.0112,0.0053,0,0,0,0,0]}]]